BRTC3 EDDC-EDDP

Flight info

Callsign BRTC3
Flight time N/A
Altitude 3000
Route DCT
Aircraft SF50/L-V/N

Departure

Time 2026-04-29 17:55
Airport Dresden Airport (EDDC)

Arrival

Time N/A
Airport Leipzig/Halle Airport (EDDP)
Time Latitude Longitude Altitude Speed Heading
2026-04-29 17:46 51.12630 13.76400 747 ft 0 kts 130°
2026-04-29 17:50 51.12630 13.76399 747 ft 2 kts 130°
2026-04-29 17:50 51.12642 13.76377 745 ft 3 kts 130°
2026-04-29 17:51 51.12654 13.76356 747 ft 3 kts 130°
2026-04-29 17:51 51.12661 13.76353 747 ft 0 kts 226°
2026-04-29 17:53 51.12656 13.76344 747 ft 4 kts 227°
2026-04-29 17:53 51.12607 13.76267 746 ft 17 kts 222°
2026-04-29 17:53 51.12529 13.76100 752 ft 7 kts 301°
2026-04-29 17:53 51.12573 13.76055 749 ft 17 kts 325°
2026-04-29 17:54 51.12598 13.76020 750 ft 0 kts 307°
2026-04-29 17:54 51.12602 13.76011 749 ft 6 kts 307°
2026-04-29 17:54 51.12661 13.75895 751 ft 17 kts 315°
2026-04-29 17:55 51.12785 13.75915 749 ft 37 kts 37°
2026-04-29 17:55 51.13171 13.76475 826 ft 103 kts 44°
2026-04-29 17:55 51.13807 13.77319 1082 ft 136 kts 38°
2026-04-29 17:55 51.14646 13.78230 1365 ft 155 kts 37°
2026-04-29 17:56 51.15878 13.78620 1308 ft 216 kts 354°
2026-04-29 17:56 51.17257 13.77315 1652 ft 248 kts 315°
2026-04-29 17:56 51.18291 13.75032 2093 ft 260 kts 306°
2026-04-29 17:56 51.18919 13.72625 2483 ft 210 kts 276°
2026-04-29 17:57 51.18539 13.70688 2804 ft 167 kts 232°
2026-04-29 17:57 51.17828 13.69343 2812 ft 152 kts 227°
2026-04-29 17:57 51.17134 13.68158 2814 ft 141 kts 222°
2026-04-29 17:57 51.16691 13.67434 2813 ft 135 kts 222°
2026-04-29 17:58 51.15860 13.66062 2815 ft 126 kts 223°
2026-04-29 17:58 51.15259 13.65085 2814 ft 121 kts 223°
2026-04-29 17:58 51.14687 13.64152 2813 ft 114 kts 222°
2026-04-29 17:58 51.14155 13.63268 2814 ft 107 kts 222°
2026-04-29 17:59 51.13667 13.62419 2808 ft 103 kts 236°
2026-04-29 17:59 51.13443 13.61081 3070 ft 138 kts 258°
2026-04-29 17:59 51.13189 13.59499 3554 ft 163 kts 256°
2026-04-29 17:59 51.12863 13.57484 3542 ft 212 kts 257°
2026-04-29 18:00 51.12953 13.54988 3430 ft 243 kts 288°
2026-04-29 18:00 51.13558 13.52350 3319 ft 263 kts 294°
2026-04-29 18:00 51.14266 13.49603 3199 ft 268 kts 295°
2026-04-29 18:00 51.15104 13.47154 3046 ft 242 kts 311°
2026-04-29 18:01 51.16204 13.45267 3152 ft 223 kts 319°
2026-04-29 18:01 51.17286 13.43556 3209 ft 217 kts 320°
2026-04-29 18:01 51.18355 13.41871 3210 ft 216 kts 320°
2026-04-29 18:01 51.19391 13.40142 3208 ft 218 kts 313°
2026-04-29 18:02 51.20290 13.38127 3208 ft 226 kts 304°
2026-04-29 18:02 51.20962 13.35823 3209 ft 231 kts 295°
2026-04-29 18:02 51.21551 13.33420 3208 ft 235 kts 294°
2026-04-29 18:02 51.22146 13.30979 3210 ft 237 kts 294°
2026-04-29 18:03 51.22746 13.28517 3208 ft 239 kts 294°
2026-04-29 18:03 51.23349 13.26044 3206 ft 239 kts 294°
2026-04-29 18:03 51.23953 13.23566 3202 ft 239 kts 294°
2026-04-29 18:03 51.24555 13.21091 3202 ft 239 kts 294°